TimePDT,TemperatureF,Dew PointF,Humidity,Sea Level PressureIn,VisibilityMPH,Wind Direction,Wind SpeedMPH,Gust SpeedMPH,PrecipitationIn,Events,Conditions,WindDirDegrees,DateUTC
12:53 AM,50.0,46.0,86,30.08,10.0,Calm,Calm,-,N/A,,Clear,0,2013-03-12 07:53:00
1:53 AM,48.0,45.0,89,30.09,10.0,Calm,Calm,-,N/A,,Clear,0,2013-03-12 08:53:00
2:53 AM,46.9,42.1,83,30.09,10.0,Calm,Calm,-,N/A,,Clear,0,2013-03-12 09:53:00
3:53 AM,46.9,42.1,83,30.07,10.0,Calm,Calm,-,N/A,,Clear,0,2013-03-12 10:53:00
4:53 AM,45.0,43.0,93,30.08,10.0,Calm,Calm,-,N/A,,Clear,0,2013-03-12 11:53:00
5:53 AM,44.1,41.0,89,30.09,10.0,Calm,Calm,-,N/A,,Clear,0,2013-03-12 12:53:00
6:53 AM,43.0,42.1,97,30.09,4.0,North,3.5,-,N/A,,Clear,360,2013-03-12 13:53:00
7:12 AM,42.8,42.8,100,30.14,5.0,Calm,Calm,-,N/A,,Scattered Clouds,0,2013-03-12 14:12:00
7:21 AM,42.8,42.8,100,30.13,5.0,Calm,Calm,-,N/A,,Mostly Cloudy,0,2013-03-12 14:21:00
7:53 AM,45.0,44.1,97,30.10,0.1,Calm,Calm,-,N/A,Fog,Fog,0,2013-03-12 14:53:00
8:53 AM,46.9,46.9,100,30.12,0.2,Calm,Calm,-,N/A,Fog,Fog,0,2013-03-12 15:53:00
9:30 AM,48.2,46.4,93,30.16,1.0,Calm,Calm,-,N/A,,Clear,0,2013-03-12 16:30:00
9:46 AM,48.2,48.2,100,30.17,3.0,Calm,Calm,-,N/A,,Clear,0,2013-03-12 16:46:00
9:53 AM,50.0,48.0,93,30.13,3.0,Calm,Calm,-,N/A,,Clear,0,2013-03-12 16:53:00
10:00 AM,50.0,48.2,94,30.17,4.0,Calm,Calm,-,N/A,,Partly Cloudy,0,2013-03-12 17:00:00
10:53 AM,57.0,48.9,74,30.12,7.0,Variable,3.5,-,N/A,,Clear,0,2013-03-12 17:53:00
11:53 AM,63.0,48.9,60,30.12,10.0,NNW,4.6,-,N/A,,Clear,340,2013-03-12 18:53:00
12:53 PM,66.9,48.9,52,30.10,10.0,North,5.8,-,N/A,,Clear,360,2013-03-12 19:53:00
1:53 PM,70.0,46.0,42,30.08,10.0,North,6.9,-,N/A,,Clear,360,2013-03-12 20:53:00
2:53 PM,73.0,43.0,34,30.05,10.0,Variable,3.5,-,N/A,,Clear,0,2013-03-12 21:53:00
3:53 PM,73.0,45.0,37,30.03,10.0,NW,4.6,-,N/A,,Clear,320,2013-03-12 22:53:00
4:53 PM,73.9,46.9,38,30.03,10.0,NNE,8.1,-,N/A,,Clear,20,2013-03-12 23:53:00
5:53 PM,73.0,45.0,37,30.02,10.0,Calm,Calm,-,N/A,,Clear,0,2013-03-13 00:53:00
6:53 PM,68.0,50.0,52,30.03,10.0,NNW,4.6,-,0.00,,Clear,330,2013-03-13 01:53:00
7:53 PM,62.1,51.1,67,30.04,10.0,NW,3.5,-,N/A,,Clear,320,2013-03-13 02:53:00
8:53 PM,60.1,51.1,72,30.06,10.0,Calm,Calm,-,N/A,,Clear,0,2013-03-13 03:53:00
9:53 PM,59.0,51.1,75,30.07,10.0,Calm,Calm,-,N/A,,Clear,0,2013-03-13 04:53:00
10:53 PM,55.9,50.0,80,30.08,10.0,Calm,Calm,-,N/A,,Clear,0,2013-03-13 05:53:00